NOAA 16 DEB, 42351

Orbit data source: Space-Track

NOAA 16 DEB, 42351 is space debris in SSO originally from a launch on Thu, 21 Sep 2000 UTC launched from the Air Force Western Test Range (AFWTR). Debris objects in space refer to the collection of defunct objects orbiting the Earth. Examples of debris include non-operational satellites, rocket bodies, and fragments generated from explosions, collisions, or faulty payload assembly.

Loading next visibility...
Identifier
42351, 2000-055QT
Orbit
SSO
Country
Flag of USUS
Related business
Manufacturer
Unknown
Mission
Spacecraft
Bus & Motor
Unknown
Mass
Unknown
Launch date (UTC)
2000-09-21 (26 years ago)
Launch vehicle
Unknown
Launch site
Air Force Western Test Range (AFWTR)
Object type
Payload
Rocket body
Debris
Shape & HBR
Unknown shape, 0.1 m
Radar Cross Section
Small (<0.1 m²)

Expand to show TLE details & history
Last TLE update: 14 hours ago

TLE from 14 hours ago
0 NOAA 16 DEB
1 42351U 00055QT  26263.34768626  .00006341  00000-0  11767-2 0  9994
2 42351  98.7027  47.2218 0027920   8.3194 351.8465 14.65355010547399
Epoch: 2026-09-20T08:20Z
TLE epoch observation values (Epoch: 2026-09-20T08:20:40.092Z)
Latitude
-0.00002°
Longitude
-77.18841°
Altitude
659.413 km
Speed
7.538 km/s
True Right ascension
03h 08m 53s
True Declination
0° 00' 00"
Sunlit
Object was in full shadow at epoch
Visualization orbit readout
Latitude
Unknown
Longitude
Unknown
Altitude
Unknown
Speed
Unknown
Apparent Right ascension
Unknown
Apparent Declination
Unknown
Sunlit
N/A
Visualization observer readout
Local Sidereal Time
15:02:59
Azimuth
Unknown
Elevation
Unknown
Doppler factor
Unknown
Orbital elements
Apogee altitude
692.721 km
Perigee altitude
653.347 km
Semi-major axis
7,051.171 km
Eccentricity
0.00279
Inclination
98.7027°
RAAN
47.2218°
Arg. of periapsis
8.3194°
True anomaly
351.80097°
Mean anomaly
351.8465°
Eccentric anomaly
351.82375°
Mean motion
3.66565 °/min
Orbital period
98.21 mins
BSTAR
0.0011767
Loading maneuver chart data...
Computing Atmospheric mass density...

Documentation

Showing up to 5 results
|